STARLINK-1226, 45229

Orbit data source: Space-Track

STARLINK-1226, 45229 is a payload satellite owned by SpaceX/Seattle (US) in LEO that was launched on Mon, 17 Feb 2020 UTC via an FALCON 9 launch vehicle from the Air Force Eastern Test Range (AFETR). Payload-class satellites include a variety of spacecraft equipped with specific instruments for various scientific and technological missions. These include communications satellites like Starlink; space stations such as the ISS; scientific satellites like the Hubble; Earth observation satellites from companies like Planet Labs, Umbra, and HawkEye 360; GPS; miniature CubeSats for education and research; and military/defense satellites.

Loading next visibility...
Identifier
45229, 2020-012BD
Orbit
LEO
Country
Flag of USUS
Related business
Manufacturer
SpaceX/Seattle
Mission
Operational Commercial Communications
Bus & Motor
STARLINK, Unknown motor
Mass
260 kg wet, ~248 kg dry
Launch date (UTC)
2020-02-17 (6 years ago)
Launch vehicle
FALCON 9
Launch site
Air Force Eastern Test Range (AFETR)
Object type
Payload
Rocket body
Debris
Shape & HBR
Box + 1 Pan, 10.1 m
Radar Cross Section
13.562 m², Large (>1 m²)

Expand to show TLE details & history
Last TLE update: 11 hours ago

TLE from 11 hours ago
0 STARLINK-1226
1 45229U 20012BD  25288.33334938  .00000259  00000-0  36301-4 0  9991
2 45229  53.0552 299.1466 0001506  88.4289 271.6872 15.06396372313385
Epoch: 2025-10-15T08:00Z
TLE epoch observation values (Epoch: 2025-10-15T08:00:01.386Z)
Latitude
-0.00006°
Longitude
155.03185°
Altitude
548.071 km
Speed
7.589 km/s
True Right ascension
19h 56m 35s
True Declination
0° 00' 00"
Sunlit
Object was in daylight at epoch
Visualization orbit readout
Latitude
Unknown
Longitude
Unknown
Altitude
Unknown
Speed
Unknown
Apparent Right ascension
Unknown
Apparent Declination
Unknown
Sunlit
N/A
Visualization observer readout
Local Sidereal Time
13:55:36
Azimuth
Unknown
Elevation
Unknown
Doppler factor
Unknown
Orbital elements
Apogee altitude
548.536 km
Perigee altitude
546.45 km
Semi-major axis
6,925.63 km
Eccentricity
0.00015
Inclination
53.0552°
RAAN
299.1466°
Arg. of periapsis
88.4289°
True anomaly
271.66995°
Mean anomaly
271.6872°
Eccentric anomaly
271.67857°
Mean motion
3.76577 °/min
Orbital period
95.6 mins
BSTAR
0.000036301
Loading maneuver chart data...
Computing Atmospheric mass density...
Loading historical data...
Loading historical data...
Loading historical data...
Loading historical data...
Loading historical data...
Loading historical data...
Loading historical data...

Documentation

Showing up to 5 results
|